Weather History for Miramar MCAS, CA

Change the Weather History Date:

Wednesday, February 27, 2013

  Actual Average Record
Temperature  
Mean Temperature 58 °F -  
Max Temperature 72 °F 61 °F 78 °F (2002)
Min Temperature 42 °F 44 °F 37 °F (2011)
Degree Days  
Heating Degree Days 8    
Growing Degree Days 8 (Base 50)    
Moisture  
Dew Point 22 °F    
Average Humidity 30    
Maximum Humidity 58    
Minimum Humidity 11    
Precipitation  
Precipitation 0.00 in - - ()
Sea Level Pressure  
Sea Level Pressure 30.18 in    
Wind  
Wind Speed 6 mph (NNE)    
Max Wind Speed 15 mph    
Max Gust Speed -    
Visibility 10 miles    
Events      
Averages and records for this station are not official NWS values.
T = Trace of Precipitation, MM = Missing Value Source: NWS Daily Summary

Daily Weather History Graph

Daily Weather History Graph

Search for Another Location

Airport:

Trip Planner

Search our weather history database for the weather conditions in past years. The results will help you decide how hot, cold, wet, or windy it might be!

Date:

Astronomy

Feb. 27, 2013 Rise Set
Actual Time 6:18 AM PST 5:44 PM PST
Civil Twilight 5:53 AM PST 6:09 PM PST
Nautical Twilight 5:24 AM PST 6:37 PM PST
Astronomical Twilight 4:56 AM PST 7:06 PM PST
Moon 7:59 PM PST (2/27) 7:05 AM PST (2/27)
Length of Visible Light 12h 15m
Length of Day
11h 26m
Waning Gibbous, 96% of the Moon is Illuminated
Feb 27
Waning Gibbous
Mar 4
Last Quarter
Mar 11
New
Mar 19
First Quarter
Mar 27
Full

Hourly Weather History & Observations

Time (PST) Temp. Windchill Dew Point Humidity Pressure Visibility Wind Dir Wind Speed Gust Speed Precip Events Conditions
12:55 AM 44.1 °F 39.5 °F 30.0 °F 58% 30.10 in 10.0 mi ENE 8.1 mph - N/A   Clear
1:55 AM 46.9 °F - 25.0 °F 42% 30.12 in 10.0 mi Calm Calm - N/A   Clear
2:55 AM 43.0 °F 39.5 °F 25.0 °F 49% 30.11 in 10.0 mi East 5.8 mph - N/A   Clear
3:55 AM 46.0 °F 44.8 °F 23.0 °F 40% 30.12 in 10.0 mi East 3.5 mph - N/A   Clear
4:55 AM 46.9 °F - 23.0 °F 39% 30.13 in 10.0 mi East 9.2 mph - N/A   Clear
5:55 AM 46.0 °F 41.9 °F 21.9 °F 39% 30.14 in 10.0 mi East 8.1 mph - N/A   Clear
6:55 AM 46.9 °F - 23.0 °F 39% 30.17 in 10.0 mi ENE 6.9 mph - N/A   Partly Cloudy
7:55 AM 60.1 °F - 24.1 °F 25% 30.19 in 10.0 mi NE 3.5 mph - N/A   Partly Cloudy
8:55 AM 64.0 °F - 15.1 °F 15% 30.19 in 10.0 mi Calm Calm - N/A   Partly Cloudy
9:55 AM 70.0 °F - 19.0 °F 14% 30.19 in 10.0 mi NNW 3.5 mph - N/A   Partly Cloudy
10:55 AM 71.1 °F - 12.9 °F 11% 30.19 in 10.0 mi Calm Calm - N/A   Partly Cloudy
11:55 AM 72.0 °F - 19.0 °F 13% 30.18 in 10.0 mi West 10.4 mph - N/A   Scattered Clouds
12:55 PM 71.1 °F - 15.1 °F 12% 30.17 in 10.0 mi West 11.5 mph - N/A   Partly Cloudy
1:55 PM 70.0 °F - 14.0 °F 12% 30.16 in 10.0 mi WNW 10.4 mph - N/A   Partly Cloudy
2:55 PM 69.1 °F - 27.0 °F 21% 30.16 in 10.0 mi NW 13.8 mph - N/A   Partly Cloudy
3:55 PM 68.0 °F - 14.0 °F 12% 30.16 in 10.0 mi NW 15.0 mph - N/A   Partly Cloudy
4:55 PM 66.0 °F - 19.9 °F 17% 30.17 in 10.0 mi NNW 9.2 mph - N/A   Partly Cloudy
5:55 PM 61.0 °F - 26.1 °F 26% 30.18 in 10.0 mi NNW 9.2 mph - N/A   Partly Cloudy
6:55 PM 59.0 °F - 28.9 °F 32% 30.21 in 10.0 mi North 6.9 mph - N/A   Clear
7:55 PM 52.0 °F - 28.9 °F 41% 30.22 in 10.0 mi Calm Calm - N/A   Clear
8:55 PM 48.9 °F - 27.0 °F 43% 30.23 in 10.0 mi East 6.9 mph - N/A   Clear
9:55 PM 50.0 °F - 26.1 °F 39% 30.25 in 10.0 mi ENE 6.9 mph - N/A   Clear
10:55 PM 48.0 °F - 25.0 °F 41% 30.25 in 10.0 mi East 4.6 mph - N/A   Clear
11:55 PM 42.1 °F 40.2 °F 25.0 °F 51% 30.25 in 10.0 mi ESE 3.5 mph - N/A   Clear